Zurück zum Katalog

BANGABANDHUSAT-1

AktivKommunikationGEO
NORAD 43463·PAYLOAD·🇧🇩 Bangladesh

Gestartet May 11, 2018 von Cape Canaveral Space Force Station

Loading…

TLE

AktuellSource: Space-Track

Epoche: Sep 14, 2026, 21:12 UTC

1 43463U 18044A   26257.88386725 -.00000370  00000-0  00000-0 0  9997
2 43463   0.0135 212.8800 0002511 327.4489 250.8229  1.00270750 30607

Verfolge BANGABANDHUSAT-1 in Echtzeit mit AllMySat

Download on the App Store